Location: Proctor
(47.8934°N, 114.3048°W)
Time: 03:56:15
(UTC+00:00)

STRAND 1 - Visible Passes

Search period start: 28 June 2022 00:00
Search period end: 08 July 2022 00:00
Orbit: 768 x 780 km, 98.4° (Epoch: 27 June)

Date Brightness Start Highest point End Pass type
(mag) Time Alt. Az. Time Alt. Az. Time Alt. Az.
28 Jun ? 04:42:57 10° NNW 04:45:22 13° NW 04:47:47 10° W visible
01 Jul ? 04:39:24 10° NNW 04:42:02 14° NW 04:44:39 10° W visible
04 Jul ? 04:35:52 10° NNW 04:38:42 15° NW 04:41:31 10° W visible
07 Jul ? 04:32:21 10° NNW 04:35:21 16° NW 04:38:20 10° W visible
